SL-12 R/B(2)

Satellite information

Favourite Embed

Satellite Type and Status

ROCKET BODYIN ORBIT

Key statistics

Satellite SL-12 R/B(2) at a glance.

Uptime

13346

Days in orbit

Revolutions

≈ 2.1

Per day

Orbit

MEO

Medium Earth Orbit

Inclination

65.0

Latest

Satellite identification and parameters

Extended collection of information and parameters for SL-12 R/B(2).

Object identification

Identified? True

Debris? False

Object name: SL-12 R/B(2)

International designator: 1989-039E

Object number (NORAD): 20028

Object ID (CCSDS): 20028

Country: COMMONWEALTH OF INDEPENDENT STATES (CIS)

Current information (Y/N): Y

RCS size: LARGE

Orbital parameters

Period: 674.52 minutes

Inclination: 65.0171 deg

SMA: 25477.486 km

Apoapsis: 19121.277 km

Periapsis: 19077.425 km

RAAN: 315.5847 deg

Eccentricy: 0.0008606

Argument of periapsis: 286.3366 deg

Mean anomaly: 170.4709 deg

Mean motion: 2.13485263 rev/day

Mean motion (dot): -0.00000062 rev/day2

B* drag term: 0.0 1/REarth

Two-line elements (TLE)

Creation date: Dec. 13, 2025, 5:47 p.m.

Reference frame: TEME

Reference center: EARTH

Epoch: Dec. 13, 2025, 6:03 a.m. UTC

TLE line 0: 0 SL-12 R/B(2)

TLE line 1: 1 20028U 89039E 25347.25247425 -.00000062 00000-0 00000-0 0 9992

TLE line 2: 2 20028 65.0171 315.5847 0008606 286.3366 170.4709 2.13485263270361

Live tracking on map

Real-time ground track for satellite SL-12 R/B(2).

In-orbit conjunctions

A list of the most updated potential collisions computed for object SL-12 R/B(2).

Target Orbit TCA Probability of collision Miss distance Type
SL-12 R/B(2) MEO 2025-02-04 17:49:03 TBA 1553.0 (m) ROCKET BODY
COSMOS 1946 (GLONASS) MEO 2024-11-24 15:48:33 TBA 3515.0 (m) PAYLOAD
COSMOS 2234 (GLONASS) MEO 2024-09-03 22:00:31 TBA 4120.0 (m) PAYLOAD

Associated space launch

GLONASS navigation satellites

SL-12 R/B(2) was lifted into orbit during the mission ‘Proton | Uragan 34 & 35’, on board a Proton space rocket.

The launch took place on May 31, 1989, 8:31 a.m. from 200/40.

For more information about the launch, click the button.

Launch to space Proton | Uragan 34 & 35
Proton | Uragan 34 & 35

Agency: N/A

Status: Launch Successful

Launch date: May 31, 1989, 8:31 a.m. UTC

Rocket: Proton

Launch pad: 200/40

Location: Baikonur Cosmodrome, Republic of Kazakhstan

...

Latest news about this satellite

There are no fresh news available about this satellite. Check back as we update our databases every day.


Newsletter sign-up

Weekly statistics, charts and insights to help you stay on top of the space industry.